Location: Unspecified
(42.3650°N, 71.1030°W)
Time: 22:30:15
(UTC+00:00)

Tiros 1 - All Passes

Search period start: 25 June 2024 00:00
Search period end: 05 July 2024 00:00
Orbit: 624 x 657 km, 48.4° (Epoch: 25 June)

Date Brightness Start Highest point End Pass type
(mag) Time Alt. Az. Time Alt. Az. Time Alt. Az.
25 Jun - 03:04:16 10° SSW 03:08:32 40° SE 03:12:50 10° ENE visible
25 Jun - 04:45:57 10° W 04:50:29 59° NNW 04:55:04 10° ENE visible
25 Jun - 06:28:46 10° WNW 06:33:05 38° N 06:37:26 10° ENE visible
25 Jun - 08:11:04 10° WNW 08:15:40 61° NNE 08:20:18 10° ESE visible
25 Jun - 09:53:18 10° WNW 09:57:37 38° SW 10:01:56 10° SSE daylight
26 Jun - 01:47:53 10° S 01:50:49 17° SE 01:53:45 10° E visible
26 Jun - 03:27:43 10° SW 03:32:17 77° SSE 03:36:54 10° ENE visible
26 Jun - 05:10:12 10° W 05:14:36 43° N 05:19:01 10° ENE visible
26 Jun - 06:52:53 10° WNW 06:57:17 42° N 07:01:43 10° E visible
26 Jun - 08:35:00 10° WNW 08:39:39 82° SSW 08:44:19 10° ESE visible
26 Jun - 10:17:55 10° W 10:21:11 19° SW 10:24:28 10° S daylight
27 Jun - 02:10:13 10° SSW 02:14:22 35° SE 02:18:32 10° ENE visible
27 Jun - 03:51:41 10° WSW 03:56:14 64° NNW 04:00:49 10° ENE visible
27 Jun - 05:34:29 10° WNW 05:38:48 38° N 05:43:08 10° ENE visible
27 Jun - 07:16:51 10° WNW 07:21:25 57° NNE 07:25:59 10° E visible
27 Jun - 08:59:02 10° WNW 09:03:26 44° SW 09:07:51 10° SE daylight
28 Jun - 00:54:13 10° SSE 00:56:41 14° SE 00:59:10 10° E visible
28 Jun - 02:33:32 10° SW 02:38:05 69° SSE 02:42:39 10° ENE visible
28 Jun - 04:15:55 10° W 04:20:20 45° NNW 04:24:46 10° ENE visible
28 Jun - 05:58:38 10° WNW 06:03:01 41° N 06:07:24 10° E visible
28 Jun - 07:40:46 10° WNW 07:45:24 89° NNE 07:50:05 10° ESE visible
28 Jun - 09:23:29 10° W 09:27:02 22° SW 09:30:35 10° S daylight
29 Jun - 01:16:12 10° SSW 01:20:11 30° SE 01:24:12 10° ENE visible
29 Jun - 02:57:25 10° WSW 03:01:59 70° NNW 03:06:35 10° ENE visible
29 Jun - 04:40:12 10° WNW 04:44:31 39° N 04:48:51 10° ENE visible
29 Jun - 06:22:38 10° WNW 06:27:09 53° NNE 06:31:41 10° E visible
29 Jun - 08:04:46 10° WNW 08:09:14 50° SW 08:13:43 10° SE visible
30 Jun - 00:00:44 10° SSE 00:02:33 12° SE 00:04:23 10° ESE daylight
30 Jun - 01:39:22 10° SW 01:43:53 60° SSE 01:48:24 10° ENE visible
30 Jun - 03:21:37 10° W 03:26:03 48° NNW 03:30:31 10° ENE visible
30 Jun - 05:04:23 10° WNW 05:08:43 40° N 05:13:05 10° ENE visible
30 Jun - 06:46:33 10° WNW 06:51:10 81° NNE 06:55:49 10° ESE visible
30 Jun - 08:29:05 10° W 08:32:52 25° SW 08:36:39 10° SSE visible
01 Jul - 00:22:12 10° SSW 00:26:01 26° SE 00:29:51 10° E daylight
01 Jul - 02:03:09 10° WSW 02:07:45 77° NNW 02:12:21 10° ENE visible
01 Jul - 03:45:54 10° WNW 03:50:13 39° N 03:54:33 10° ENE visible
01 Jul - 05:28:24 10° WNW 05:32:52 49° NNE 05:37:22 10° E visible
01 Jul - 07:10:30 10° WNW 07:15:01 57° SW 07:19:34 10° SE visible
01 Jul - 08:54:48 10° WSW 08:56:20 11° SW 08:57:51 10° SSW daylight
01 Jul - 23:07:55 10° SE 23:08:26 10° SE 23:08:56 10° ESE daylight
02 Jul - 00:45:13 10° SW 00:49:40 53° SE 00:54:08 10° ENE daylight
02 Jul - 02:27:18 10° W 02:31:47 51° NNW 02:36:15 10° ENE visible
02 Jul - 04:10:06 10° WNW 04:14:25 39° N 04:18:45 10° ENE visible
02 Jul - 05:52:19 10° WNW 05:56:55 74° NNE 06:01:33 10° ESE visible
02 Jul - 07:34:44 10° W 07:38:42 29° SW 07:42:41 10° SSE visible
02 Jul - 23:28:15 10° S 23:31:51 23° SE 23:35:27 10° E daylight
03 Jul - 01:08:54 10° WSW 01:13:30 85° NNW 01:18:07 10° ENE visible
03 Jul - 02:51:35 10° WNW 02:55:55 40° N 03:00:16 10° ENE visible
03 Jul - 04:34:09 10° WNW 04:38:36 46° NNE 04:43:03 10° E visible
03 Jul - 06:16:15 10° WNW 06:20:48 65° SSW 06:25:22 10° SE visible
03 Jul - 07:59:54 10° WSW 08:02:11 14° SW 08:04:27 10° SSW visible
03 Jul - 23:51:05 10° SW 23:55:28 46° SE 23:59:52 10° ENE daylight
04 Jul - 01:32:59 10° W 01:37:30 54° NNW 01:42:01 10° ENE visible
04 Jul - 03:15:49 10° WNW 03:20:08 38° N 03:24:26 10° ENE visible
04 Jul - 04:58:05 10° WNW 05:02:40 67° NNE 05:07:15 10° ESE visible
04 Jul - 06:40:24 10° WNW 06:44:31 33° SW 06:48:38 10° SSE visible
04 Jul - 22:34:21 10° S 22:37:41 20° SE 22:41:01 10° E daylight
